Location: Newark
(23.5328°S, 46.7919°W)
Time: 23:38:43
(UTC+00:00)

N. Korean satellite - Visible Passes

Search period start: 05 March 2021 00:00
Search period end: 15 March 2021 00:00
Orbit: 451 x 502 km, 97.2° (Epoch: 05 March)

Date Brightness Start Highest point End Pass type
(mag) Time Alt. Az. Time Alt. Az. Time Alt. Az.
05 Mar 6.5 07:58:10 10° N 08:01:51 86° WNW 08:05:36 10° SSW visible
06 Mar 8.3 07:31:48 10° NE 07:35:11 35° ESE 07:38:37 10° S visible
07 Mar 9.8 07:06:29 10° ENE 07:08:36 15° ESE 07:10:44 10° SE visible
07 Mar 7.9 08:38:50 10° NNW 08:41:38 20° W 08:44:28 10° SW visible
08 Mar 6.7 08:11:14 10° N 08:14:49 52° W 08:18:29 10° SSW visible
09 Mar 7.3 07:44:29 10° NNE 07:48:06 56° ESE 07:51:47 10° S visible
10 Mar 9.2 07:18:32 10° NE 07:21:28 22° ESE 07:24:24 10° SSE visible
11 Mar 7.3 08:24:27 10° NNW 08:27:46 32° W 08:31:08 10° SW visible
12 Mar 6.5 07:57:18 10° N 08:01:00 88° W 08:04:43 10° SSW visible
13 Mar 8.4 07:30:55 10° NE 07:34:17 34° ESE 07:37:40 10° S visible
14 Mar 9.8 07:05:36 10° ENE 07:07:39 14° ESE 07:09:43 10° SE visible
14 Mar 7.9 08:37:51 10° NNW 08:40:40 21° W 08:43:31 10° SW visible
